Preview of NWS' New Version of Forecast
This preview is not operational and should not be used for support decisions.

Regional Weather Roundup (RWR)

Issued by Philadelphia/Mt Holly (PHI)

                            
000
ASUS41 KPHI 252112
RWRPHI

REGIONAL WEATHER ROUNDUP
NATIONAL WEATHER SERVICE MOUNT HOLLY NJ
500 PM EDT SAT MAY 25 2019

NOTE:  "FAIR" INDICATES FEW OR NO CLOUDS BELOW 12,000 FEET WITH NO
SIGNIFICANT WEATHER AND/OR OBSTRUCTIONS TO VISIBILITY.

 * = STATION DOES NOT REPORT PRECIPITATION (E.G. RAIN, SNOW, ETC.) 
        OR FOG.

NJZ015>026-252200-
SOUTHERN NEW JERSEY
  
CITY           SKY/WX    TMP DP  RH WIND       PRES   REMARKS
POMONA         FAIR      66  52  60 S13       30.17F                  
WILDWOOD*      FAIR      68  55  63 SE16      30.17F                  
MILLVILLE      FAIR      69  54  58 SE13      30.15F                  
WRIGHTSTOWN    MOSUNNY   71  51  48 S8        30.11F                  
MOUNT HOLLY    FAIR      72  54  53 MISG      30.12F                  
TRENTON        FAIR      72  53  51 S14G20    30.11F                  

$$
NJZ001>014-252200-
NORTHERN NEW JERSEY
  
CITY           SKY/WX    TMP DP  RH WIND       PRES   REMARKS
SUSSEX         FAIR      71  57  61 SW10G17   30.08F                  
ANDOVER*         N/A     69  54  58 VRB5      30.09F                  
MORRISTOWN     PTSUNNY   72  55  56 S8        30.11F                  
NEWARK         PTSUNNY   69  47  45 SE15G22   30.12F                  
TETERBORO      FAIR      68  47  46 S15       30.12F                  
CALDWELL       FAIR      69  51  52 SE13G18   30.11F                  
SOMERVILLE     PTSUNNY   72  55  55 VRB7      30.08F                  
ALLAIRE*       FAIR      65  45  48 SE13      30.17F                  
TOMS RIVER*    PTSUNNY   68  49  50 S12       30.16F                  

$$
PAZ043-044-047-054-055-060>062-066>071-252200-
EASTERN PENNSYLVANIA
  
CITY           SKY/WX    TMP DP  RH WIND       PRES   REMARKS
PHILADELPHIA   PTSUNNY   74  53  48 S14       30.12F                  
NORTH PHILA    FAIR      75  54  47 S10       30.13F                  
BLUE BELL*     FAIR      73  55  52 S13G21    30.12F                  
DOYLESTOWN     FAIR      73  54  51 S9        30.10F                  
QUAKERTOWN*    PTSUNNY   73  57  56 S8G16     30.10                   
PERKASIE*      FAIR      72  55  56 S8        30.11F                  
POTTSTOWN      FAIR      71  54  54 SW9       30.12F                  
LANCASTER      FAIR      75  62  64 S12       30.09F                  
COATESVILLE    FAIR      68  57  68 SE8G14    30.12F                  
WEST CHESTER   FAIR      72  55  56 S6        30.12F                  
READING        PTSUNNY   73  60  63 S14       30.08F                  
ALLENTOWN      CLOUDY    75  55  49 SW12      30.10F                  
QN CITY/ALNTWN PTSUNNY   72  55  56 S8G20     30.12S                  
MOUNT POCONO   PTSUNNY   64  54  69 S12G22    30.12S                  
HAZLETON       CLOUDY    68  54  60 S9G17     30.13S                  
LEHIGHTON      CLOUDY    70  54  56 S5        30.10S                  
WILKES BARRE   CLOUDY    72  57  59 S9        30.05F                  

$$
DEZALL-MDZ008-012-015-019-020-252200-
DELAWARE AND EASTERN MARYLAND
  
CITY           SKY/WX    TMP DP  RH WIND       PRES   REMARKS
WILMINGTON     FAIR      70  55  59 S17G26    30.13F                  
CHESWOLD         N/A     70  57  64 SE12G18   30.13S                  
GEORGETOWN     FAIR      71  56  58 SE14      30.16S                  
EASTON         SUNNY     81  59  47 S13G20    30.16S                  
STEVENSVILLE   FAIR      77  63  61 S12       30.09F                  
PATUXENT       FAIR      74  64  71 SE18G25   30.12                   
OCEAN CITY     FAIR      67  57  70 SE12      30.17F                  
WALLOPS ISLAND FAIR      71  60  68 SE15      30.17F                  
CAMBRIDGE      SUNNY     77  61  57 S10G21    30.12F                  
SALISBURY      FAIR      72  59  63 SE15      30.15F                  

$$
PAZ001-021-NYZ056-072-MDZ011-DCZ001-252200-
OTHER NEARBY LOCATIONS
  
CITY           SKY/WX    TMP DP  RH WIND       PRES   REMARKS
HARRISBURG     FAIR      77  61  57 S8        30.06F                  
STATE COLLEGE  PTSUNNY   77  63  61 S12G20    30.03F                  
WILLIAMSPORT   FAIR      76  58  53 SE15G29   30.00F                  
BINGHAMTON     FAIR      71  57  61 S13G21    30.00F                  
NEW YORK CITY  FAIR      65  44  46 SE9G20    30.16F                  
BALTIMORE      PTSUNNY   78  62  57 SE13G18   30.08F                  
WASHINGTON DC  PTSUNNY   81  63  54 S9        30.08F                  

$$